Погода в Пекшиксоле

Россия / Республика Марий Эл     56°40′36″N   47°43′14″E
темп.,
°C
ветер,
м/с
пор.,
м/с
влажн.,
%
обл.,
%
осадки,
мм/ч
давл.,
гПа
погр.,
м
10 мая, пн
пн1000:00+13ююв3993100 1.6 1013231
03:00+12ююз1194100 1.6 101522
06:00+12ю2392100 0.1 101773
09:00+16всв2374100 0.1 1018458
12:00+20св1162100 0.1 1020768
15:00+19ссз4364100 0.3 1021981
18:00+16с478263 0.2 1023392
21:00+11с389571 0.2 1025256
11 мая, вт
вт1100:00+9с499634 0.0 1026247
03:00+8ссв499855 0.0 1027262
06:00+10св489143 0.0 1027276
09:00+16св46735 0.0 1028532
12:00+21всв34585 0.0 1028956
15:00+22всв34545 0.0 10271267
18:00+20св37676 0.0 1028368
21:00+15св38878 0.0 1028149
12 мая, ср
ср1200:00+14всв389113 0.0 1029157
03:00+13всв37944 0.0 1029136
06:00+15св37829 0.0 1029214
09:00+21в465618 0.0 1029679
12:00+24вюв463510 0.0 10281935
15:00+24юв453227 0.0 10272320
18:00+21вюв37537 0.0 1027252
21:00+16юв226555 0.0 102832
13 мая, чт
чт1300:00+15вюв226298 0.0 102737
03:00+13вюв247196 0.0 102757
06:00+16вюв256957 0.0 1027137
09:00+22юв46457 0.0 1027816
12:00+24ююв563313 0.0 10261775
15:00+24юв563365 0.0 10241708
18:00+19юв116197 0.0 102414
21:00+18юв31062100 0.0 1024248
14 мая, пт
пт1400:00+16юв31066100 0.0 1024221
03:00+14ююв387753 0.0 1024156
06:00+17ююв387059 0.0 1024220
09:00+23ю464545 0.0 1023664
12:00+26ююв583358 0.0 10211465
15:00+26ююв57365 0.0 10211442
18:00+23ююв495276 0.0 1020560
21:00+18ююв3117297 0.0 1019245